Preview of NWS' New Version of Forecast
This preview is not operational and should not be used for support decisions.

Regional Weather Roundup (RWR)

Issued by National Weather Service (NWS)

                            
000
ASPQ40 PGUM 250410
RWRPQ 
WEATHER ROUNDUP FOR THE MARIANAS AND MICRONESIA
NATIONAL WEATHER SERVICE TIYAN GU
200 PM CHST TUE JUN 25 2019

GUZ001>004-250500-
MARIANA ISLANDS-
  
CITY           SKY/WX    TMP DP  RH WIND       PRES   REMARKS
GUAM AIRPORT   MOSUNNY   88  73  62 E17       29.88F HX  96           
ANDERSEN AFB   PTSUNNY   88  75  66 E16       29.89F HX  97           
ROTA AIRPORT   PTSUNNY   86  73  66 E15       29.89F HX  93           
TINIAN AP      PTSUNNY   90  73  58 E15       29.88F HX  98           
SAIPAN AP      MOSUNNY   90  75  62 E16       29.90F HX 100           

$$

PMZ161-250500-
REPUBLIC OF PALAU-
  
CITY           SKY/WX    TMP DP  RH WIND       PRES   REMARKS
KOROR AP       PTSUNNY   84  75  74 W7        29.84F HX  92           
KOROR WSO      NOT AVBL                                               

$$

PMZ171>174-250500-
FEDERATED STATES OF MICRONESIA-
  
CITY           SKY/WX    TMP DP  RH WIND       PRES   REMARKS
YAP AIRPORT    PTSUNNY   88  79  74 E8        29.82F HX 102           
CHUUK AP       LGT RAIN  82  81  94 VRB5      29.81F HX  95           
POHNPEI AP     NOT AVBL                                               
POHNPEI WSO    LGT RAIN  79  77  94 E5        29.84F                  
KOSRAE AP      CLOUDY    84  79  84 S14       29.79F HX  96           

$$

PMZ181-250500-
REPUBLIC OF THE MARSHALL ISLANDS-
  
CITY           SKY/WX    TMP DP  RH WIND       PRES   REMARKS
KWAJALEIN AP   PTSUNNY   84  79  84 SE13      29.83S HX  96           
MAJURO AP      NOT AVBL                                               
MAJURO WSO     CLOUDY    86  79  79 E14       29.81F HX  99           

$$